EST,Max TemperatureF,Mean TemperatureF,Min TemperatureF,Max Dew PointF,MeanDew PointF,Min DewpointF,Max Humidity, Mean Humidity, Min Humidity, Max Sea Level PressureIn, Mean Sea Level PressureIn, Min Sea Level PressureIn, Max VisibilityMiles, Mean VisibilityMiles, Min VisibilityMiles, Max Wind SpeedMPH, Mean Wind SpeedMPH, Max Gust SpeedMPH,PrecipitationIn, CloudCover, Events, WindDirDegrees
2013-11-1,72,66,60,60,50,40,90,61,31,29.71,29.64,29.52,10,9,2,28,15,37,0.29,4,Rain,228
2013-11-2,60,53,46,46,42,38,86,67,47,29.92,29.77,29.69,10,10,10,23,5,33,0.01,5,Rain,258
2013-11-3,54,49,44,40,31,20,76,52,28,30.50,30.19,29.93,10,10,10,20,13,24,T,3,Rain,336
2013-11-4,44,36,27,25,21,18,69,54,38,30.68,30.62,30.53,10,10,10,9,4,12,0.00,0,,43
2013-11-5,53,43,32,42,34,22,82,69,56,30.66,30.56,30.46,10,10,10,10,3,13,0.00,3,,219
2013-11-6,64,57,50,49,46,42,83,70,56,30.47,30.29,30.01,10,10,10,15,9,22,0.00,5,,169
2013-11-7,59,55,50,54,44,23,93,76,59,30.11,29.98,29.90,10,8,2,22,10,26,0.27,7,Rain,274
2013-11-8,47,42,37,28,25,22,60,49,37,30.34,30.22,30.11,10,10,10,25,11,35,0.00,5,,284
2013-11-9,53,42,30,27,26,23,78,55,32,30.37,30.21,30.04,10,10,10,18,8,24,0.00,1,,178
2013-11-10,57,49,41,34,28,25,54,45,35,30.27,30.09,30.00,10,10,10,35,14,43,0.00,3,,262
2013-11-11,55,45,35,31,28,26,70,54,38,30.31,30.19,30.04,10,10,10,14,7,17,0.00,5,,220
2013-11-12,52,43,34,37,21,12,76,57,37,30.44,30.27,30.02,10,10,10,26,15,33,T,3,,323
2013-11-13,41,35,29,19,18,16,69,54,38,30.51,30.46,30.40,10,10,10,22,12,28,0.00,2,,295
2013-11-14,55,41,26,20,14,7,63,39,15,30.39,30.32,30.24,10,10,10,16,7,21,0.00,0,,196
2013-11-15,58,45,31,26,21,15,63,42,21,30.30,30.25,30.21,10,10,10,8,4,11,0.00,1,,144
2013-11-16,60,50,40,49,43,31,93,63,33,30.35,30.28,30.21,10,8,4,15,4,17,0.02,5,Rain,157
2013-11-17,59,55,51,58,54,49,96,91,86,30.23,30.00,29.69,10,8,5,18,11,25,T,8,Rain,165
2013-11-18,63,58,53,58,33,22,84,54,23,29.99,29.81,29.68,10,10,2,35,13,43,0.09,3,Rain,266
2013-11-19,45,42,38,27,24,22,55,50,45,30.42,30.23,29.99,10,10,10,28,16,36,0.00,4,,318
2013-11-20,46,37,28,23,19,10,75,50,25,30.60,30.54,30.42,10,10,10,12,5,15,0.00,0,,68
2013-11-21,45,36,26,34,29,22,78,67,56,30.61,30.52,30.40,10,10,8,7,3,9,0.00,4,,27
2013-11-22,54,47,39,48,42,33,86,79,71,30.38,30.16,30.03,10,9,8,7,2,10,0.01,8,,277
2013-11-23,49,41,32,39,23,10,74,54,34,30.27,30.17,30.09,10,10,10,25,14,31,T,2,,301
2013-11-24,29,25,21,16,9,5,74,57,39,30.55,30.42,30.27,10,9,2,29,16,37,T,5,Snow,308
2013-11-25,36,27,18,9,6,4,62,44,26,30.58,30.47,30.33,10,10,10,15,7,20,0.00,1,,193
2013-11-26,35,34,32,33,28,10,96,66,35,30.32,30.06,29.63,10,4,2,10,4,13,0.25,8,Rain,16
2013-11-27,38,36,34,35,29,14,100,85,70,30.07,29.68,29.57,10,8,0,24,14,33,0.07,8,Fog-Rain-Snow,303
2013-11-28,34,29,23,18,14,11,65,52,39,30.50,30.37,30.10,10,10,10,23,13,30,0.00,5,,296
2013-11-29,39,34,28,21,19,17,75,60,44,30.76,30.64,30.49,10,10,8,18,4,22,0.00,3,,340
2013-11-30,34,27,20,21,17,14,84,64,43,30.76,30.62,30.40,10,10,8,12,5,16,0.00,0,,129